Columbia Airport, CA

5:28 AM PDT on October 15, 2019 (GMT -0700)
Columbia Airport

Weather History for KO22 - August, 2019

Change the Weather History Date:

Sunday, August 4, 2019

  Actual Average (KMOD) Record (KMOD)
Temperature  
Mean Temperature 79 °F -  
Max Temperature 96 °F 94 °F 108 °F (1998)
Min Temperature 62 °F 60 °F 51 °F (1934)
Cooling Degree Days 14    
Growing Degree Days 29 (Base 50)    
Moisture  
Dew Point 49 °F    
Average Humidity 40    
Maximum Humidity 72    
Minimum Humidity 12    
Precipitation  
Precipitation 0.00 in - - ()
Sea Level Pressure  
Sea Level Pressure 30.00 in    
Wind  
Wind Speed 2 mph (SW)    
Max Wind Speed 9 mph    
Max Gust Speed 14 mph    
Visibility 10 miles    
Events      
Averages and records for this station are not official NWS values.
T = Trace of Precipitation, MM = Missing Value Source: NWS Daily Summary

Daily Weather History Graph

Daily Weather History Graph

Search for Another Location

Airport or City:

Astronomy

Aug. 04, 2019 Rise Set
Actual Time 6:07 AM PDT 8:07 PM PDT
Civil Twilight 5:38 AM PDT 8:36 PM PDT
Nautical Twilight 5:02 AM PDT 9:11 PM PDT
Astronomical Twilight 4:24 AM PDT 9:49 PM PDT
Moon 10:15 AM PDT (8/4) 10:54 PM PDT (8/4)
Length of Visible Light 14h 58m
Length of Day
14h 00m
Waxing Crescent, 19% of the Moon is Illuminated
Aug 4
Waxing Crescent
Aug 7
First Quarter
Aug 15
Full
Aug 23
Last Quarter
Aug 30
New

Hourly Weather History & Observations

Time (PDT) Temp. Heat Index Dew Point Humidity Pressure Visibility Wind Dir Wind Speed Gust Speed Precip Events Conditions
12:15 AM 69.8 °F - 51.8 °F 53% 30.00 in 10.0 mi Calm Calm - N/A   Clear
12:35 AM 68.0 °F - 53.6 °F 60% 29.99 in 10.0 mi Calm Calm - N/A   Clear
12:55 AM 69.8 °F - 53.6 °F 56% 29.99 in 10.0 mi Variable 3.5 mph - N/A   Clear
1:15 AM 68.0 °F - 53.6 °F 60% 29.99 in 10.0 mi Calm Calm - N/A   Clear
1:35 AM 68.0 °F - 53.6 °F 60% 29.99 in 10.0 mi Calm Calm - N/A   Clear
1:55 AM 68.0 °F - 53.6 °F 60% 29.99 in 10.0 mi Calm Calm - N/A   Clear
2:15 AM 66.2 °F - 53.6 °F 64% 29.99 in 10.0 mi Calm Calm - N/A   Clear
2:35 AM 66.2 °F - 53.6 °F 64% 29.99 in 10.0 mi Calm Calm - N/A   Clear
2:55 AM 66.2 °F - 53.6 °F 64% 29.99 in 10.0 mi Calm Calm - N/A   Clear
3:15 AM 66.2 °F - 53.6 °F 64% 29.98 in 10.0 mi Calm Calm - N/A   Clear
3:35 AM 64.4 °F - 53.6 °F 68% 29.98 in 10.0 mi Calm Calm - N/A   Clear
3:55 AM 64.4 °F - 53.6 °F 68% 29.98 in 10.0 mi Calm Calm - N/A   Clear
4:15 AM 64.4 °F - 53.6 °F 68% 29.98 in 10.0 mi Calm Calm - N/A   Clear
4:35 AM 66.2 °F - 53.6 °F 64% 29.98 in 10.0 mi Calm Calm - N/A   Clear
4:55 AM 64.4 °F - 53.6 °F 68% 29.99 in 10.0 mi Calm Calm - N/A   Clear
5:15 AM 64.4 °F - 53.6 °F 68% 29.99 in 10.0 mi Calm Calm - N/A   Clear
5:35 AM 62.6 °F - 53.6 °F 72% 29.99 in 10.0 mi Calm Calm - N/A   Clear
5:55 AM 62.6 °F - 53.6 °F 72% 29.99 in 10.0 mi Calm Calm - N/A   Clear
6:15 AM 62.6 °F - 53.6 °F 72% 30.00 in 10.0 mi Calm Calm - N/A   Clear
6:35 AM 64.4 °F - 53.6 °F 68% 30.00 in 10.0 mi Calm Calm - N/A   Clear
6:55 AM 64.4 °F - 53.6 °F 68% 30.00 in 10.0 mi Calm Calm - N/A   Clear
7:15 AM 66.2 °F - 55.4 °F 68% 30.00 in 10.0 mi Calm Calm - N/A   Clear
7:35 AM 68.0 °F - 57.2 °F 68% 30.00 in 10.0 mi Calm Calm - N/A   Clear
7:55 AM 71.6 °F - 59.0 °F 64% 30.01 in 10.0 mi Calm Calm - N/A   Clear
8:15 AM 75.2 °F - 59.0 °F 57% 30.01 in 10.0 mi Calm Calm - N/A   Clear
8:35 AM 78.8 °F - 59.0 °F 51% 30.01 in 10.0 mi Calm Calm - N/A   Clear
8:55 AM 82.4 °F 81.7 °F 55.4 °F 39% 30.01 in 10.0 mi Calm Calm - N/A   Clear
9:15 AM 84.2 °F 83.0 °F 55.4 °F 37% 30.01 in 10.0 mi Calm Calm - N/A   Clear
9:35 AM 86.0 °F 84.5 °F 55.4 °F 35% 30.01 in 10.0 mi Calm Calm - N/A   Clear
9:55 AM 87.8 °F 85.7 °F 53.6 °F 31% 30.01 in 10.0 mi Calm Calm - N/A   Clear
10:15 AM 87.8 °F 85.7 °F 53.6 °F 31% 30.02 in 10.0 mi South 4.6 mph - N/A   Clear
10:35 AM 89.6 °F - 50.0 °F 26% 30.02 in 10.0 mi Variable 3.5 mph - N/A   Clear
10:55 AM 91.4 °F - 46.4 °F 21% 30.02 in 10.0 mi South 4.6 mph - N/A   Clear
11:15 AM 91.4 °F - 48.2 °F 23% 30.02 in 10.0 mi South 3.5 mph - N/A   Clear
11:35 AM 91.4 °F - 51.8 °F 26% 30.02 in 10.0 mi Variable 5.8 mph - N/A   Clear
11:55 AM 93.2 °F - 48.2 °F 21% 30.03 in 10.0 mi WSW 6.9 mph - N/A   Clear
12:15 PM 93.2 °F - 44.6 °F 19% 30.02 in 10.0 mi WSW 8.1 mph - N/A   Clear
12:35 PM 93.2 °F - 42.8 °F 17% 30.02 in 10.0 mi SW 9.2 mph - N/A   Clear
12:55 PM 95.0 °F - 42.8 °F 16% 30.02 in 10.0 mi SW 8.1 mph 13.8 mph N/A   Clear
1:15 PM 95.0 °F - 41.0 °F 15% 30.02 in 10.0 mi WSW 9.2 mph - N/A   Clear
1:35 PM 95.0 °F - 41.0 °F 15% 30.02 in 10.0 mi WSW 9.2 mph - N/A   Clear
1:55 PM 95.0 °F - 41.0 °F 15% 30.02 in 10.0 mi SW 8.1 mph - N/A   Clear
2:15 PM 96.8 °F - 39.2 °F 14% 30.02 in 10.0 mi Variable 5.8 mph 12.7 mph N/A   Clear
2:35 PM 96.8 °F - 39.2 °F 14% 30.02 in 10.0 mi SW 9.2 mph - N/A   Clear
2:55 PM 96.8 °F - 37.4 °F 13% 30.02 in 10.0 mi SW 5.8 mph 12.7 mph N/A   Clear
3:15 PM 96.8 °F - 37.4 °F 13% 30.01 in 10.0 mi SSW 5.8 mph - N/A   Clear
3:35 PM 96.8 °F - 37.4 °F 13% 30.01 in 10.0 mi Variable 5.8 mph 11.5 mph N/A   Clear
3:55 PM 96.8 °F - 35.6 °F 12% 30.00 in 10.0 mi WSW 5.8 mph - N/A   Clear
4:15 PM 96.8 °F - 35.6 °F 12% 30.00 in 10.0 mi SW 5.8 mph - N/A   Clear
4:35 PM 96.8 °F - 37.4 °F 13% 29.99 in 10.0 mi WSW 6.9 mph - N/A   Clear
4:55 PM 95.0 °F - 37.4 °F 13% 29.99 in 10.0 mi WSW 6.9 mph - N/A   Clear
5:15 PM 95.0 °F - 35.6 °F 12% 29.99 in 10.0 mi Variable 3.5 mph - N/A   Clear
5:35 PM 95.0 °F - 35.6 °F 12% 29.99 in 10.0 mi SW 5.8 mph - N/A   Clear
5:55 PM 93.2 °F - 35.6 °F 13% 29.98 in 10.0 mi WSW 5.8 mph - N/A   Clear
6:15 PM 93.2 °F - 41.0 °F 16% 29.98 in 10.0 mi SSW 4.6 mph - N/A   Clear
6:35 PM 91.4 °F - 44.6 °F 20% 29.98 in 10.0 mi Variable 6.9 mph - N/A   Clear
6:55 PM 91.4 °F - 44.6 °F 20% 29.98 in 10.0 mi WNW 6.9 mph - N/A   Clear
7:35 PM 87.8 °F - 46.4 °F 24% 29.98 in 10.0 mi Variable 6.9 mph - N/A   Clear
7:55 PM 86.0 °F - 46.4 °F 25% 29.99 in 10.0 mi WNW 4.6 mph - N/A   Clear
8:15 PM 84.2 °F - 48.2 °F 29% 29.99 in 10.0 mi Variable 5.8 mph - N/A   Clear
8:35 PM 82.4 °F - 48.2 °F 30% 29.99 in 10.0 mi Variable 3.5 mph - N/A   Clear
8:55 PM 80.6 °F - 50.0 °F 34% 30.00 in 10.0 mi Calm Calm - N/A   Clear
9:15 PM 78.8 °F - 50.0 °F 36% 30.00 in 10.0 mi Calm Calm - N/A   Clear
9:35 PM 75.2 °F - 51.8 °F 44% 30.00 in 10.0 mi Calm Calm - N/A   Clear
9:55 PM 73.4 °F - 51.8 °F 47% 30.01 in 10.0 mi Calm Calm - N/A   Clear
10:15 PM 73.4 °F - 51.8 °F 47% 30.01 in 10.0 mi Variable 3.5 mph - N/A   Clear
10:35 PM 71.6 °F - 51.8 °F 50% 30.01 in 10.0 mi Calm Calm - N/A   Clear
10:55 PM 71.6 °F - 51.8 °F 50% 30.01 in 10.0 mi Calm Calm - N/A   Clear
11:15 PM 69.8 °F - 51.8 °F 53% 30.01 in 10.0 mi Calm Calm - N/A   Clear
11:35 PM 69.8 °F - 51.8 °F 53% 30.01 in 10.0 mi Calm Calm - N/A   Clear
11:55 PM 68.0 °F - 51.8 °F 56% 30.01 in 10.0 mi Calm Calm - N/A   Clear